FFT3487 KORD-KMSP

Flight info

Callsign FFT3487
Flight time N/A
Altitude 32000
Route PMPKN NEATO DLLAN RONIC KAMMA KKILR4
Aircraft A21N/M-SDE2E3FGHIRWXY/LB1

Departure

Time 2026-05-04 19:23
Airport Chicago O'Hare International Airport (KORD)

Arrival

Time N/A
Airport Minneapolis–Saint Paul International Airport / Wold–Chamberlain Field (KMSP)
Time Latitude Longitude Altitude Speed Heading
2026-05-04 18:58 41.97354 -87.88503 675 ft 0 kts
2026-05-04 19:16 41.97346 -87.88503 673 ft 4 kts 358°
2026-05-04 19:16 41.97320 -87.88502 675 ft 4 kts
2026-05-04 19:17 41.97301 -87.88510 675 ft 4 kts 31°
2026-05-04 19:17 41.97281 -87.88531 673 ft 4 kts 53°
2026-05-04 19:17 41.97270 -87.88561 675 ft 4 kts 80°
2026-05-04 19:17 41.97269 -87.88591 675 ft 4 kts 90°
2026-05-04 19:18 41.97269 -87.88609 675 ft 0 kts 90°
2026-05-04 19:20 41.97269 -87.88590 675 ft 4 kts 90°
2026-05-04 19:20 41.97269 -87.88523 675 ft 10 kts 90°
2026-05-04 19:20 41.97269 -87.88417 674 ft 12 kts 90°
2026-05-04 19:21 41.97206 -87.88350 675 ft 13 kts 135°
2026-05-04 19:21 41.97195 -87.88222 675 ft 15 kts 88°
2026-05-04 19:21 41.97197 -87.88087 675 ft 13 kts 97°
2026-05-04 19:21 41.97120 -87.88029 675 ft 15 kts 179°
2026-05-04 19:22 41.97014 -87.88033 677 ft 10 kts 182°
2026-05-04 19:22 41.96974 -87.88011 677 ft 7 kts 170°
2026-05-04 19:22 41.96958 -87.88022 677 ft 0 kts 220°
2026-05-04 19:23 41.96930 -87.88055 677 ft 28 kts 220°
2026-05-04 19:23 41.96583 -87.88466 675 ft 103 kts 222°
2026-05-04 19:23 41.95876 -87.89301 673 ft 156 kts 223°
2026-05-04 19:23 41.95068 -87.90225 1333 ft 144 kts 222°
2026-05-04 19:24 41.94276 -87.91077 1832 ft 151 kts 220°
2026-05-04 19:24 41.93434 -87.92001 2335 ft 164 kts 226°
2026-05-04 19:24 41.92709 -87.93276 2733 ft 180 kts 246°
2026-05-04 19:24 41.92665 -87.95005 3246 ft 203 kts 282°
2026-05-04 19:25 41.93545 -87.96642 3731 ft 237 kts 319°
2026-05-04 19:25 41.95194 -87.97449 4100 ft 272 kts 353°
2026-05-04 19:25 41.97134 -87.97179 4795 ft 285 kts
2026-05-04 19:25 41.99138 -87.96739 5698 ft 289 kts
2026-05-04 19:26 42.01139 -87.96389 6585 ft 291 kts
2026-05-04 19:26 42.03164 -87.96109 7459 ft 294 kts
2026-05-04 19:26 42.05217 -87.95870 8280 ft 297 kts 360°
2026-05-04 19:26 42.07284 -87.95650 9070 ft 300 kts 359°
2026-05-04 19:27 42.09383 -87.95441 9858 ft 304 kts 359°
2026-05-04 19:27 42.11532 -87.95236 10395 ft 318 kts 359°
2026-05-04 19:27 42.13805 -87.95023 10716 ft 338 kts 359°
2026-05-04 19:27 42.16222 -87.94802 11003 ft 358 kts 359°
2026-05-04 19:28 42.18770 -87.94574 11315 ft 376 kts 359°
2026-05-04 19:28 42.21392 -87.94329 11921 ft 382 kts 359°
2026-05-04 19:28 42.24064 -87.94075 12656 ft 385 kts 359°
2026-05-04 19:28 42.26748 -87.93819 13399 ft 388 kts 359°
2026-05-04 19:29 42.29448 -87.93565 14117 ft 390 kts 358°
2026-05-04 19:29 42.32138 -87.93547 14787 ft 387 kts 350°
2026-05-04 19:29 42.34844 -87.93848 15443 ft 390 kts 349°
2026-05-04 19:29 42.37551 -87.94179 16110 ft 393 kts 349°
2026-05-04 19:30 42.40289 -87.94512 16770 ft 395 kts 349°
2026-05-04 19:30 42.43038 -87.94841 17416 ft 398 kts 349°
2026-05-04 19:30 42.45805 -87.95171 18020 ft 401 kts 349°